User: anonymous   Login
Location: Banios
(43.0451°N, 0.2335°E)
Time: 02:38:18
(UTC+00:00)
Language:

NOSS 3-2 (A) - Orbit

View from above orbital plane
View from above orbital plane
View from above satellite
View from above satellite

Ground track
Ground track

The orbit data is extracted from the following two-line orbital elements,

1 28095U 03054A   21090.79167188 0.00000000  00000-0  00000-0 0    08
2 28095  63.4157  15.8673 0432538 359.5453   0.4547 13.41402361    06
Epoch (UTC): 31 March 2021 19:00:00
Eccentricity: 0.0432538
inclination: 63.4157°
perigee height: 780 km
apogee height: 1427 km
right ascension of ascending node: 15.8673°
argument of perigee: 359.5453°
revolutions per day: 13.41402361
mean anomaly at epoch: 0.4547°
orbit number at epoch: 0

The dashed part of the orbit path shows where the satellite is in the earth's shadow,  

DLR